Home   Weather   Spokane   Past weeks
Flag for USA

Past Weather in Spokane, Washington, USA — Yesterday and Last 2 Weeks

Now
61 °F

Clear.


Feels Like: 61 °F
Forecast: 87 / 53 °F
Wind: No wind

Location: Felts Field

Current Time: Jul 21, 2019 at 12:16:12 am

Latest Report: Jul 20, 2019 at 10:53 pm


Visibility: 10 mi

Pressure: 30.07 "Hg (28.12 "Hg at 569m altitude)

Humidity: 52%

Dew Point: 43 °F

Location of SpokaneLocation

Past Weather in Spokane — Graph

°F

Spokane Temperature Yesterday

Maximum temperature yesterday: 79 °F (at 4:53 pm)
Minimum temperature yesterday: 47 °F (at 4:53 am)
Average temperature yesterday: 65 °F

High & Low Weather Summary for the Past Weeks

 TemperatureHumidityPressure
High88 °F (Jul 13, 1:53 pm)90% (Jul 16, 7:53 am)30.10 "Hg (Jul 16, 7:53 am)
Low47 °F (Jul 20, 4:53 am)14% (Jul 18, 3:53 pm)29.76 "Hg (Jul 17, 10:53 pm)
Average69 °F47%29.93 "Hg
* Reported Jul 5 10:53 pm — Jul 20 10:53 pm, Spokane. Weather by CustomWeather, © 2019

Note: Actual official high and low records may vary slightly from our data, if they occured in-between our weather recording intervals... More about our weather records

Advertising

Spokane Weather History for the Previous 24 Hours

Scroll right to see more
 ConditionsComfort  
Time TempWeatherWind HumidityBarometerVisibility
10:53 pm
Sat, Jul 20
61 °FClear.No wind52%30.07 "Hg10 mi
9:53 pm63 °FClear.3 mph47%30.07 "Hg10 mi
8:53 pm69 °FClear.5 mph36%30.06 "Hg10 mi
7:53 pm74 °FSunny.5 mph31%30.04 "Hg10 mi
6:53 pm78 °FSunny.5 mph24%30.04 "Hg10 mi
5:53 pm79 °FSunny.7 mph22%30.05 "Hg10 mi
4:53 pm79 °FPassing clouds.7 mph21%30.06 "Hg10 mi
3:53 pm78 °FSunny.3 mph21%30.06 "Hg10 mi
2:53 pm74 °FMostly cloudy.7 mph27%30.07 "Hg10 mi
1:53 pm76 °FPartly sunny.3 mph24%30.06 "Hg10 mi
12:53 pm76 °FScattered clouds.No wind24%30.06 "Hg10 mi
11:53 am74 °FSunny.6 mph28%30.07 "Hg10 mi
10:53 am71 °FSunny.5 mph36%30.08 "Hg10 mi
9:53 am67 °FSunny.3 mph41%30.09 "Hg10 mi
8:53 am62 °FSunny.3 mph50%30.10 "Hg10 mi
7:53 am57 °FSunny.No wind58%30.09 "Hg10 mi
6:53 am53 °FSunny.3 mph66%30.08 "Hg10 mi
5:53 am48 °FSunny.No wind74%30.07 "Hg10 mi
4:53 am47 °FClear.3 mph77%30.06 "Hg10 mi
3:53 am48 °FClear.No wind74%30.05 "Hg10 mi
2:53 am50 °FClear.No wind74%30.04 "Hg10 mi
1:53 am51 °FClear.3 mph61%30.04 "Hg10 mi
12:53 am54 °FClear.3 mph59%30.03 "Hg10 mi
Weather by CustomWeather, © 2019

See weather overview